Volver al catálogo

STARLINK-35776

ActivoComunicacionesVLEO
NORAD 66282·PAYLOAD·🇺🇸 United States

Lanzado Oct 31, 2025 desde Vandenberg Space Force Base

Loading…

Próximos Pases (próximas 24 horas)

TLE

ActualizadoSource: CelesTrak SupGP

Época: Sep 14, 2026, 15:40 UTC

1 66282C 25247T   26257.65326389 -.00079923  00000+0 -23619-2 0  2579
2 66282  53.1606  30.7847 0001281  85.9437   9.4297 15.34423472    11

Sigue STARLINK-35776 en tiempo real con AllMySat

Download on the App Store